Wind_Speed
47 49 50 50 51 52 52 53 55 55 54 55 57 58 58 58 58 58 59 58 58 59 60 60 61 59 58 57 56 54 53 52 52 53 53 53 54 55
48 48 49 50 51 51 52 54 55 57 57 56 57 57 57 57 57 58 58 58 58 59 59 58 57 55 55 53 52 50 49 49 49 49 48 47 49 50
48 49 49 50 50 51 53 54 56 58 59 57 57 56 56 56 57 57 57 56 56 56 55 55 53 52 51 50 49 48 48 48 47 46 45 44 45 46
48 49 50 50 51 52 53 54 55 57 58 57 55 55 56 56 55 55 54 54 54 53 52 50 49 48 48 47 47 47 46 45 44 44 43 42 42 42
48 49 50 50 51 52 53 54 55 56 56 57 55 55 54 54 53 52 51 50 50 49 48 47 45 46 46 45 44 44 43 42 41 40 40 39 39 38
49 50 50 50 51 52 52 53 54 55 55 55 54 53 51 51 50 49 47 46 46 46 45 44 42 42 41 40 39 39 38 38 37 36 36 36 35 35
48 49 49 50 51 52 52 53 53 54 54 53 51 49 48 47 46 46 45 44 43 43 42 40 38 37 36 36 35 35 34 34 33 32 32 32 30 29
49 49 49 50 51 51 51 52 53 53 51 50 48 47 45 45 45 44 44 42 41 40 38 35 34 33 33 33 33 32 31 30 30 29 28 26 25 23
49 49 49 50 50 50 50 50 51 50 48 47 46 44 44 44 43 42 41 40 38 37 34 32 31 32 32 32 31 29 28 28 27 25 23 21 20 20
49 49 49 48 48 48 47 47 47 46 45 44 43 43 42 42 40 39 38 37 35 34 32 30 28 29 30 29 28 26 25 24 22 19 18 16 15 15
48 48 47 46 46 46 46 46 45 42 41 41 40 40 40 39 37 37 37 35 32 31 30 28 27 27 27 26 25 24 22 20 18 16 13 11 10 10
45 44 44 44 44 44 44 43 40 38 38 37 37 38 37 36 36 35 35 33 31 28 27 27 26 25 23 23 23 21 19 17 15 13 11 8 7 8
43 42 42 42 42 42 41 40 38 37 36 35 35 34 34 33 33 33 33 31 29 27 26 25 24 23 23 21 20 18 17 15 13 11 9 8 7 7
40 40 40 40 39 39 39 37 36 35 34 34 33 32 31 31 31 31 30 29 28 27 25 24 23 23 22 21 19 17 15 13 10 8 8 6 5 5
38 38 38 37 37 37 36 35 34 33 32 31 31 30 30 29 28 28 28 27 25 25 24 23 22 22 21 19 18 15 12 10 9 8 7 5 3 3
36 36 36 36 35 34 33 33 32 31 30 30 29 28 27 27 27 27 26 25 22 21 22 21 20 19 18 17 15 12 10 10 8 7 5 3 2 1
35 35 35 34 33 32 32 31 30 29 29 29 28 27 25 25 25 25 24 23 21 18 18 18 17 16 15 12 11 9 9 9 8 6 4 3 2 2
34 34 33 33 32 31 30 30 29 28 27 26 25 25 23 23 23 23 22 21 18 16 15 14 13 12 11 9 9 9 9 8 7 5 4 3 4 5
33 32 32 32 30 29 28 28 27 26 25 24 24 23 23 22 22 21 20 18 16 14 13 12 11 11 9 8 7 7 8 7 6 5 5 5 6 7
31 30 30 29 28 28 27 27 26 24 23 22 22 21 21 20 19 18 17 14 13 12 12 12 10 9 8 7 6 6 6 6 6 6 6 7 8 8
29 28 28 28 27 26 25 24 23 22 21 20 20 20 19 18 17 16 14 12 11 11 10 9 8 8 7 6 6 6 6 6 6 6 8 8 9 9
27 26 26 25 24 23 22 21 21 20 19 19 18 18 17 16 15 13 12 10 9 8 7 7 6 7 6 5 5 7 8 9 9 9 9 10 10 10
24 24 23 22 21 20 19 19 19 18 17 17 17 16 15 14 12 10 9 8 8 7 6 5 5 6 6 6 6 7 9 10 10 10 11 11 11 11
Wind_Direction
291 292 294 296 297 297 298 298 299 299 299 300 300 299 299 298 298 298 297 297 296 295 295 296 295 294 294 292 290 289 287 286 283 281 279 275 271 267
291 293 295 296 297 298 299 299 300 301 301 302 302 301 300 300 300 300 299 298 297 297 297 297 296 295 295 293 291 290 289 287 286 284 281 278 273 270
291 293 295 296 297 298 299 300 301 302 303 303 303 303 302 301 301 301 301 300 299 298 298 298 297 296 295 294 293 291 290 289 287 285 283 280 276 272
292 294 295 296 296 298 300 301 302 303 304 304 304 303 303 303 302 302 302 302 301 300 300 299 298 297 297 297 296 294 292 290 288 285 284 282 278 274
293 295 296 296 297 299 301 302 303 304 305 305 305 305 305 304 304 303 303 303 303 303 303 301 300 299 299 298 297 296 294 292 290 286 283 282 279 275
294 295 296 296 298 299 301 303 304 305 306 306 306 306 306 305 305 305 305 305 305 305 305 304 302 301 301 301 300 299 297 294 291 288 285 283 280 275
295 296 296 297 298 300 301 303 304 305 306 306 306 306 307 307 307 307 307 307 307 306 307 306 304 303 303 303 303 303 301 298 296 293 288 285 280 272
295 296 297 298 299 300 301 303 304 306 306 306 306 307 308 308 309 310 310 309 309 308 307 306 305 306 306 306 306 305 303 302 300 297 293 287 278 268
296 296 297 299 299 300 302 303 305 306 306 306 308 309 309 309 310 311 312 313 314 313 311 309 308 308 309 309 308 308 307 305 304 300 299 291 278 267
296 297 298 298 299 300 302 304 305 305 306 307 308 309 310 311 313 314 315 316 317 316 314 313 311 310 312 314 313 312 312 312 310 307 302 294 281 265
296 297 297 298 299 301 302 304 305 305 305 307 309 310 312 314 315 316 318 318 318 316 314 314 314 312 313 314 316 315 314 314 314 311 307 298 283 267
296 296 297 299 300 301 303 305 305 305 306 307 308 311 313 314 316 318 319 320 319 318 315 315 316 315 315 316 319 318 316 317 317 314 308 297 281 265
295 296 297 299 301 302 304 304 304 305 306 307 309 311 313 315 317 318 319 320 319 319 319 320 321 320 321 323 324 322 321 318 317 315 307 295 276 256
295 296 298 299 301 303 304 304 304 305 306 308 310 312 314 315 317 318 320 320 319 319 321 322 323 323 323 323 325 325 326 326 323 317 314 304 276 245
296 297 299 300 303 304 304 304 304 305 306 308 310 312 314 316 318 319 321 321 320 320 321 322 325 325 325 326 327 330 332 333 330 323 321 314 284 238
296 297 299 301 303 304 304 304 305 306 307 308 310 312 314 316 318 321 323 323 321 321 321 322 325 328 329 330 332 339 345 348 346 338 335 338 336 214
295 296 298 300 301 301 302 304 305 306 307 308 310 312 314 316 319 321 324 325 325 325 324 326 329 332 336 341 346 352 357 356 354 355 6 26 49 97
295 296 297 298 299 300 301 303 304 306 307 308 309 311 313 316 320 323 324 326 328 329 332 335 338 341 346 351 353 356 2 3 5 15 30 53 81 94
295 296 296 297 298 299 300 302 303 304 306 307 308 310 312 315 319 322 324 326 329 333 339 343 344 346 349 353 359 5 9 16 29 43 62 84 95 101
294 295 295 297 298 297 298 300 302 304 306 307 308 309 310 314 318 322 326 329 331 334 339 342 345 349 354 2 11 19 25 37 47 60 80 95 96 97
293 293 294 296 297 297 298 299 301 302 303 305 309 310 311 314 318 322 325 328 330 333 338 344 349 358 7 16 28 43 54 63 68 80 90 94 96 101
291 293 295 297 298 297 297 298 299 300 302 304 307 311 313 315 318 320 323 326 330 335 344 353 4 15 30 46 57 65 72 76 80 84 87 94 101 109
291 293 295 296 297 297 297 299 300 300 301 302 305 308 311 314 317 319 323 326 331 340 354 10 25 36 50 62 69 73 75 76 78 80 87 93 100 105
Height
5680 5677 5673 5669 5664 5660 5655 5649 5645 5641 5640 5634 5626 5619 5612 5605 5599 5593 5588 5582 5576 5571 5566 5561 5555 5550 5545 5541 5537 5533 5530 5527 5525 5523 5521 5519 5519 5521
5669 5666 5662 5657 5653 5648 5643 5638 5631 5626 5623 5620 5613 5605 5598 5592 5585 5579 5573 5567 5561 5555 5550 5545 5539 5534 5529 5525 5521 5518 5515 5512 5509 5507 5505 5503 5503 5503
5658 5655 5651 5646 5642 5637 5632 5626 5620 5613 5608 5606 5599 5592 5585 5579 5573 5566 5559 5553 5547 5541 5536 5530 5525 5520 5515 5511 5508 5504 5501 5497 5494 5492 5490 5489 5488 5488
5647 5643 5639 5635 5630 5625 5620 5615 5608 5601 5594 5590 5586 5580 5573 5566 5559 5553 5547 5540 5534 5528 5522 5517 5511 5507 5502 5498 5494 5490 5487 5483 5481 5478 5477 5476 5474 5474
5636 5632 5628 5623 5619 5614 5609 5603 5596 5590 5582 5576 5572 5566 5560 5553 5547 5541 5535 5529 5522 5516 5511 5505 5500 5495 5491 5486 5482 5478 5474 5471 5468 5466 5464 5463 5462 5462
5625 5620 5616 5612 5607 5603 5597 5591 5585 5579 5572 5565 5559 5554 5548 5541 5534 5529 5525 5519 5513 5506 5500 5495 5490 5485 5480 5475 5471 5467 5463 5460 5457 5454 5453 5451 5451 5450
5614 5609 5605 5600 5596 5591 5585 5580 5574 5568 5561 5554 5548 5543 5537 5531 5525 5519 5513 5509 5504 5496 5492 5486 5481 5477 5472 5467 5462 5458 5454 5450 5447 5444 5442 5441 5440 5440
5604 5599 5595 5590 5585 5580 5574 5568 5562 5556 5550 5544 5538 5532 5526 5520 5515 5509 5503 5498 5495 5490 5484 5479 5473 5469 5464 5460 5455 5450 5446 5442 5439 5436 5434 5432 5432 5433
5593 5589 5584 5579 5574 5570 5564 5558 5552 5545 5539 5533 5528 5522 5517 5511 5506 5501 5495 5489 5484 5479 5475 5472 5467 5462 5457 5452 5448 5443 5439 5435 5432 5429 5427 5426 5426 5427
5582 5578 5574 5569 5564 5559 5555 5549 5543 5537 5531 5525 5519 5514 5508 5502 5497 5492 5487 5483 5478 5472 5467 5464 5461 5456 5451 5447 5442 5438 5433 5430 5427 5424 5423 5421 5421 5422
5572 5567 5563 5558 5554 5549 5545 5540 5535 5529 5523 5517 5512 5506 5501 5495 5490 5485 5481 5476 5472 5468 5462 5458 5454 5450 5447 5442 5438 5433 5429 5426 5424 5421 5419 5418 5419 5419
5562 5557 5553 5549 5544 5540 5535 5531 5526 5521 5516 5511 5506 5500 5495 5489 5484 5479 5474 5469 5465 5462 5457 5453 5448 5444 5442 5439 5435 5430 5427 5424 5421 5419 5417 5417 5417 5417
5552 5548 5544 5540 5536 5531 5526 5522 5517 5513 5509 5504 5500 5495 5489 5484 5479 5474 5468 5463 5459 5456 5452 5447 5444 5439 5436 5434 5432 5428 5424 5422 5419 5418 5416 5415 5415 5416
5543 5539 5536 5532 5527 5523 5519 5514 5510 5506 5502 5498 5494 5489 5484 5480 5475 5470 5465 5459 5455 5451 5447 5443 5439 5436 5432 5430 5428 5425 5422 5420 5418 5416 5415 5415 5415 5415
5534 5530 5527 5523 5520 5515 5511 5507 5503 5499 5495 5492 5488 5483 5479 5474 5470 5466 5461 5456 5452 5447 5443 5439 5435 5432 5429 5426 5424 5422 5420 5418 5416 5415 5414 5414 5414 5415
5525 5522 5519 5515 5512 5508 5504 5500 5496 5492 5489 5485 5482 5478 5474 5470 5466 5461 5457 5453 5449 5445 5440 5436 5433 5430 5427 5425 5422 5420 5419 5417 5416 5415 5414 5414 5414 5415
5518 5515 5511 5508 5504 5501 5497 5493 5490 5486 5483 5479 5476 5473 5469 5466 5462 5457 5453 5449 5446 5442 5439 5435 5431 5428 5426 5424 5422 5420 5419 5417 5416 5415 5415 5415 5415 5415
5509 5506 5503 5500 5497 5494 5491 5487 5484 5480 5477 5474 5471 5468 5465 5462 5458 5454 5450 5446 5443 5440 5436 5434 5431 5429 5426 5424 5423 5421 5420 5418 5417 5416 5416 5417 5417 5417
5501 5498 5495 5493 5490 5487 5484 5481 5478 5475 5472 5469 5466 5463 5460 5457 5454 5451 5447 5444 5441 5438 5435 5433 5431 5428 5426 5425 5423 5422 5420 5419 5418 5418 5418 5419 5419 5420
5492 5490 5488 5485 5482 5480 5477 5475 5472 5470 5467 5464 5461 5459 5456 5454 5451 5448 5445 5442 5439 5437 5435 5433 5431 5428 5427 5425 5424 5423 5422 5421 5420 5420 5421 5421 5422 5423
5485 5482 5480 5478 5476 5473 5471 5469 5467 5464 5462 5459 5457 5454 5452 5450 5448 5445 5443 5440 5438 5436 5435 5433 5431 5429 5428 5426 5426 5425 5424 5423 5423 5423 5423 5424 5425 5426
5477 5475 5474 5471 5469 5467 5465 5463 5461 5459 5457 5455 5453 5451 5449 5447 5445 5443 5441 5439 5437 5436 5434 5433 5431 5430 5429 5429 5428 5427 5426 5426 5425 5425 5426 5427 5428 5429
5470 5469 5467 5465 5464 5462 5460 5459 5457 5455 5453 5451 5449 5447 5446 5444 5442 5440 5439 5438 5436 5435 5434 5433 5432 5432 5431 5430 5430 5430 5429 5429 5429 5430 5430 5430 5431 5432